Regional Weather Roundup
Issued by NWS Cleveland, OH

Home | Current Version | Previous Version | Graphics & Text | Print | Product List | Glossary On
Versions: 1 2 3 4 5 6 7 8 9 10 11 12 13 14 15 16 17 18 19 20 21 22 23 24 25 26 27 28 29 30 31 32 33 34 35 36 37 38 39 40 41 42 43 44 45 46 47 48 49 50
000
ASUS41 KCLE 101600
RWRCLE
OHIO REGIONAL WEATHER ROUNDUP
NATIONAL WEATHER SERVICE WILMINGTON, OH
1200 PM EDT THU JUL 10 2014

NOTE: "FAIR" INDICATES FEW OR NO CLOUDS BELOW 12,000 FEET WITH NO
SIGNIFICANT WEATHER AND/OR OBSTRUCTIONS TO VISIBILITY.

OHZ001>008-015>018-024>027-034-035-043-044-101700-
   NORTHWEST OHIO

CITY           SKY/WX    TMP DP  RH WIND       PRES   REMARKS
DEFIANCE       SUNNY     75  53  46 VRB6      30.17R
FINDLAY        SUNNY     74  57  55 VRB6      30.15R
TOLEDO EXPRESS PTSUNNY   73  55  53 N5        30.15R
TOLEDO METCALF PTSUNNY   73  57  57 N7        30.16R
LIMA           SUNNY     73  56  54 NW7       30.17R
$$

OHZ009>014-019>023-028>033-038-089-101700-
   NORTHEAST OHIO

CITY           SKY/WX    TMP DP  RH WIND       PRES   REMARKS
CLE-HOPKINS    PTSUNNY   74  56  53 CALM      30.15S
CLE-LAKEFRONT  MOSUNNY   75  58  55 N10       30.12R
CUY CO. ARPT   MOSUNNY   77  61  57 SE8       30.15R
LORAIN-ELYRIA  PTSUNNY   76  59  55 CALM      30.14S
ASHTABULA      SUNNY     73  54  51 NE5       30.17R
AKRON-CANTON   PTSUNNY   74  57  55 CALM      30.14R
WOOSTER        NOT AVBL
MANSFIELD      PTSUNNY   75  61  61 NW9       30.15R
YOUNGSTOWN     MOSUNNY   73  54  51 VRB3      30.15S
$$

OHZ042-051>053-060>062-070>072-077>081-101700-
  SOUTHWEST OHIO

CITY           SKY/WX    TMP DP  RH WIND       PRES   REMARKS
CINC-COVINGTON MOSUNNY   78  57  48 W3        30.14R
CINC-LUNKEN    MOSUNNY   78  62  57 SE6       30.13S
HAMILTON       MOSUNNY   80  61  52 NW5       30.14S
DAYTON         NOT AVBL
WRIGHT-PAT AFB SUNNY     76  58  55 NW7       30.15R
DAYTON GENERAL MOSUNNY   75  58  55 N6        30.14R
WILMINGTON     MOSUNNY   77  61  57 E5        30.14R
$$

OHZ036-037-039>041-045>050-054>059-063>069-073>076-082>088-101700-
  CENTRAL AND SOUTHEAST OHIO

CITY           SKY/WX    TMP DP  RH WIND       PRES   REMARKS
COLUMBUS       MOSUNNY   80  59  48 NW8       30.12R
OSU AIRPORT    MOSUNNY   76  57  51 NW3       30.13R
BOLTON FIELD   MOSUNNY   77  63  61 W7        30.14R
RICKENBACK AFB NOT AVBL
NEWARK         PTSUNNY   79  59  50 VRB5      30.12R
MARION         MOSUNNY   74  57  55 N8        30.15R
LANCASTER      MOSUNNY   80  59  48 VRB3      30.13R
ZANESVILLE     MOSUNNY   77  61  57 E3        30.13R
NEW PHILLY     MOSUNNY   78  63  59 CALM      30.13R
$$


USA.gov is the U.S. government's official web portal to all federal, state and local government web resources and services.